星链-37029(STARLINK-37029)

导读

STARLINK-37029(NORAD编号68271)是美国SpaceX公司星链(Starlink)卫星互联网星座的一员,部署于近地轨道,属于星链大规模组网计划的组成部分。 作为低轨通信卫星,它延续了星链卫星的典型设计:采用紧凑型平板结构,搭载Ku/Ka/E频段相控阵天线与星间激光链路,配合氩气离子推进系统实现轨道机动与离轨处置,通过低轨道部署提供低时延、高带宽的全球互联网接入服务,支持偏远地区通信、应急连接等场景,目前处于在轨运行状态。

基本信息
目录编号:
68271
目录名称:
STARLINK-37029
国际标识:
2026-055K
轨道中心:
EARTH
卫星名称:
星链-37029
卫星全名:
星链-37029(STARLINK-37029)
卫星状态:
在轨 (已飞行178 天)
发射日期:
2026-03-19 UTC
国别 :
美国 (US)
星等 :
--
该卫星已列入 空间交会检测服务 Space Conjunction Data Service (SCDS) ,当前飞行风险评估等级: 无高风险
轨道信息
数据来源 国际轨道数据
星历时间: 2026-09-13T08:14:36+0800
9小时前
查看轨道信息
半长轴: 6840.825km
偏心率: 0.0001436
轨道倾角: 53.160°
近地点辐角 93.504°
升交点赤经 164.707°
平近点角 266.613°
近地点: 461.705km
远地点: 463.671km
周期: 93.847分钟
每日圈数: 15.344052
详细信息
固有亮度:
5
最大亮度:
2.5
卫星平台:
Starlink V1.0
覆盖范围:
全球
运营商:
太空探索技术公司
运营商所在国:
美国
制造商(研发单位):
太空探索技术公司
制造商所在国:
美国
使用方式:
暂无
卫星简介
Starlink 计划是 SpaceX 推出的全球卫星互联网项目,通过发射低轨道卫星,为全球尤其是偏远地区提供高速、低延迟的互联网服务。自 2019 年起,Starlink 已部署数千颗卫星,旨在缩小全球数字鸿沟,推动互联网普及。该项目还为军事、航空等行业提供通信支持,带来广泛经济效益。
2D轨道图
3D轨道图
轨道高度分析图
轨道倾角分析图
轨道综合分析图
查看轨道综合分析图
交会数据列表
事件ID 空间交会对象 最接近时刻(TCA) 交会距离 交会风险概率(CRP) 交会风险指数(CRI) 操作
CDM_260915-134106-012906-827121
2026-09-15T
13:41:38+0000
0.434 km
远距离
1.80568E-4 高风险 0.8
CDM_260915-151506-012906-827121
2026-09-15T
15:15:26+0000
2.031 km
极远距离
1.702764E-6 低风险 0.4
CDM_260915-120706-012906-827121
2026-09-15T
12:07:50+0000
2.334 km
极远距离
1.263395E-6 低风险 0.37
CDM_260913-222205-324706-827121
2026-09-13T
22:22:38+0000
2.866 km
极远距离
1.062815E-6 低风险 0.36
CDM_260909-152205-173906-827121
2026-09-09T
15:22:08+0000
1.883 km
极远距离
1.047997E-6 低风险 0.35
与全量物体交会距离演化趋势
与全量物体交会风险概率演化趋势